This is the latest recevied weather packets stored in our database for station/object N0QV. If no packets are shown the sender has not sent any weather packets the latest 10 day(s).
| Time | Temp. | Humidity | Pressure | Rain* | Wind** | Luminosity | Snow |
|---|---|---|---|---|---|---|---|
| 1777997561 | 9.44° C | 43% | 1012.3 hPa | 0 mm | - | 624 W/m² | - |
| 1777997259 | 10.56° C | 42% | 1012.2 hPa | 0 mm | - | 912 W/m² | - |
| 1777996956 | 10.56° C | 41% | 1012.3 hPa | 0 mm | - | 865 W/m² | - |
| 1777996652 | 10° C | 44% | 1012.2 hPa | 0 mm | - | 707 W/m² | - |
| 1777996349 | 11.11° C | 40% | 1012.2 hPa | 0 mm | - | 241 W/m² | - |
| 1777996045 | 10.56° C | 42% | 1012.2 hPa | 0 mm | - | 924 W/m² | - |
| 1777995741 | 8.89° C | 45% | 1012.1 hPa | 0 mm | - | 308 W/m² | - |
| 1777995438 | 8.89° C | 43% | 1012.2 hPa | 0 mm | - | 194 W/m² | - |
| 1777995135 | 8.89° C | 44% | 1012.3 hPa | 0 mm | - | 461 W/m² | - |
| 1777994832 | 8.89° C | 44% | 1012.3 hPa | 0 mm | - | 165 W/m² | - |
| 1777994528 | 9.44° C | 44% | 1012.2 hPa | 0 mm | - | 166 W/m² | - |
| 1777994223 | 10° C | 43% | 1012.2 hPa | 0 mm | - | 209 W/m² | - |
| 1777993921 | 10° C | 45% | 1012.1 hPa | 0 mm | - | 895 W/m² | - |
| 1777993617 | 10° C | 44% | 1012.2 hPa | 0 mm | - | 768 W/m² | - |
| 1777993315 | 10° C | 42% | 1012.2 hPa | 0 mm | - | 713 W/m² | - |
| 1777993015 | 9.44° C | 43% | 1012.2 hPa | 0 mm | - | 325 W/m² | - |
| 1777992714 | 9.44° C | 43% | 1012.2 hPa | 0 mm | - | 448 W/m² | - |
| 1777992411 | 9.44° C | 45% | 1012 hPa | 0 mm | - | 710 W/m² | - |
| 1777992109 | 9.44° C | 43% | 1012.2 hPa | 0 mm | - | 523 W/m² | - |
| 1777991806 | 9.44° C | 44% | 1011.8 hPa | 0 mm | - | 557 W/m² | - |
| 1777991503 | 10° C | 46% | 1012 hPa | 0 mm | - | 377 W/m² | - |
| 1777991200 | 8.89° C | 45% | 1011.9 hPa | 0 mm | - | 475 W/m² | - |
| 1777990897 | 8.89° C | 47% | 1011.9 hPa | 0 mm | - | 418 W/m² | - |
| 1777990595 | 9.44° C | 49% | 1011.8 hPa | 0 mm | - | 414 W/m² | - |
| 1777989988 | 8.89° C | 46% | 1011.6 hPa | 0 mm | - | 389 W/m² | - |
* Rain latest hour (hover to see other rain measurements)
** Current wind speed in m/s (hover to see current wind gust speed)